Starlink 32616

operational
NORAD ID: 61920 Int'l Des: 2024-207 Owner: SPXS Country: US Constellation: starlink
LEOCIRCULAR

About Starlink 32616

Description loading...

Live Position

Loading 3D Globe...

Upcoming Passes

Altitude History

Altitude vs Time

uPlot chart will show altitude changes over time

Two-Line Element Set

1 61920U 24207J 26063.08077459 .00039788 00000-0 14465-2 0 9997
2 61920 43.0025 313.4728 0001477 271.1616 88.9067 15.27605550 73863
Epoch: Mar 4, 2026 • Age: 19 hours

Current Status

Altitude 493.8 km
Velocity 7.62 km/s
Sub-Earth Point -39.86°S, 160.55°E
Launch Date Nov 11, 2024
Age 1.3 years
Type internet

Technical Details

Classification Payload
Mass 730.00 kg
Dry Mass 700.00 kg
Total Mass 730.00 kg
Length 0.30 m
Diameter 4.10 m
Span 29.00 m
Shape Box + pan
Manufacturer SPXS
Bus Type Starlink V2M
Phase Status In Orbit
Owner/State SPXS/US

Large Constellations

Loading constellations...